| time (UTC) | temp F | wind direction | speed MPH | gust MPH | rain 1hr in | rain 24hr in | rain mn in | humidity % | barometer mb |
| 20260507182133 | 68 | 248 | 4.0 | 9.0 | 0.00 | 0.36 | 0.00 | 36 | 1013.0 |
| 20260507181153 | 67 | 248 | 7.0 | 12.0 | 0.00 | 0.41 | 0.00 | 38 | 1013.3 |
| 20260507180223 | 66 | 270 | 8.0 | 13.0 | 0.00 | 0.47 | 0.00 | 38 | 1013.5 |
| 20260507175333 | 63 | 270 | 6.0 | 11.0 | 0.00 | 0.52 | 0.00 | 47 | 1013.5 |
| 20260507174408 | 62 | 248 | 3.0 | 11.0 | 0.00 | 0.55 | 0.00 | 49 | 1013.5 |
| 20260507173514 | 61 | 248 | 3.0 | 6.0 | 0.00 | 0.57 | 0.00 | 47 | 1013.7 |
| 20260507172602 | 60 | 248 | 3.0 | 10.0 | 0.00 | 0.59 | 0.00 | 46 | 1013.8 |
| 20260507172513 | 60 | 248 | 3.0 | 10.0 | 0.00 | 0.59 | 0.00 | 46 | 1013.8 |
| 20260507171548 | 59 | 270 | 3.0 | 7.0 | 0.00 | 0.59 | 0.00 | 46 | 1014.1 |
| 20260507170728 | 58 | 248 | 6.0 | 11.0 | 0.00 | 0.60 | 0.00 | 46 | 1014.1 |
| 20260507165738 | 57 | 270 | 7.0 | 11.0 | 0.00 | 0.61 | 0.00 | 52 | 1014.4 |
| 20260507164903 | 56 | 248 | 8.0 | 14.0 | 0.00 | 0.62 | 0.00 | 52 | 1014.5 |
| 20260507164003 | 55 | 248 | 8.0 | 13.0 | 0.00 | 0.63 | 0.00 | 50 | 1014.5 |
| 20260507163138 | 55 | 270 | 7.0 | 12.0 | 0.00 | 0.63 | 0.00 | 52 | 1014.6 |
| 20260507162243 | 54 | 270 | 8.0 | 15.0 | 0.00 | 0.64 | 0.00 | 55 | 1014.5 |
| 20260507161308 | 54 | 270 | 8.0 | 14.0 | 0.00 | 0.66 | 0.00 | 52 | 1014.8 |
| 20260507160405 | 54 | 270 | 7.0 | 12.0 | 0.00 | 0.67 | 0.00 | 57 | 1015.0 |
| 20260507155529 | 54 | 270 | 8.0 | 14.0 | 0.00 | 0.67 | 0.00 | 57 | 1015.0 |
| 20260507154625 | 55 | 270 | 6.0 | 11.0 | 0.00 | 0.67 | 0.00 | 61 | 1015.1 |
| 20260507153712 | 55 | 158 | 1.0 | 4.0 | 0.00 | 0.68 | 0.00 | 55 | 1015.2 |
| 20260507152844 | 55 | 158 | 2.0 | 3.0 | 0.00 | 0.69 | 0.00 | 60 | 1015.1 |
| 20260507151921 | 54 | 135 | 2.0 | 5.0 | 0.00 | 0.70 | 0.00 | 58 | 1015.1 |
| 20260507151049 | 53 | 270 | 2.0 | 6.0 | 0.00 | 0.70 | 0.00 | 54 | 1015.3 |
| 20260507150119 | 52 | 0 | 1.0 | 4.0 | 0.00 | 0.70 | 0.00 | 63 | 1015.3 |
| 20260507145221 | 51 | 45 | 2.0 | 5.0 | 0.00 | 0.71 | 0.00 | 57 | 1015.5 |
| 20260507144301 | 51 | 45 | 1.0 | 3.0 | 0.00 | 0.71 | 0.00 | 67 | 1015.5 |
| 20260507143348 | 50 | 45 | 2.0 | 3.0 | 0.00 | 0.71 | 0.00 | 61 | 1015.5 |
| 20260507142458 | 50 | 112 | 1.0 | 2.0 | 0.00 | 0.71 | 0.00 | 62 | 1015.3 |
| 20260507141618 | 49 | 135 | 1.0 | 3.0 | 0.00 | 0.71 | 0.00 | 63 | 1015.4 |
| 20260507140633 | 49 | 135 | 1.0 | 3.0 | 0.00 | 0.71 | 0.00 | 60 | 1015.6 |
| 20260507135833 | 49 | 112 | 2.0 | 6.0 | 0.00 | 0.71 | 0.00 | 60 | 1015.7 |
| 20260507135013 | 48 | 90 | 2.0 | 3.0 | 0.00 | 0.71 | 0.00 | 60 | 1015.7 |
| 20260507134148 | 48 | 135 | 1.0 | 4.0 | 0.00 | 0.71 | 0.00 | 59 | 1015.6 |
| 20260507133233 | 48 | 135 | 2.0 | 5.0 | 0.00 | 0.71 | 0.00 | 59 | 1015.6 |
| 20260507132258 | 47 | 135 | 3.0 | 7.0 | 0.00 | 0.71 | 0.00 | 60 | 1015.5 |
| 20260507131333 | 46 | 135 | 4.0 | 9.0 | 0.00 | 0.71 | 0.00 | 60 | 1015.6 |
| 20260507130433 | 45 | 135 | 4.0 | 9.0 | 0.00 | 0.71 | 0.00 | 63 | 1015.5 |
| 20260507125608 | 44 | 158 | 4.0 | 10.0 | 0.00 | 0.71 | 0.00 | 64 | 1015.4 |
| 20260507124721 | 42 | 158 | 3.0 | 5.0 | 0.00 | 0.71 | 0.00 | 68 | 1015.4 |
| 20260507123822 | 41 | 158 | 3.0 | 10.0 | 0.00 | 0.71 | 0.00 | 69 | 1015.4 |
| 20260507122953 | 40 | 158 | 3.0 | 9.0 | 0.00 | 0.71 | 0.00 | 70 | 1015.5 |
| 20260507122118 | 40 | 135 | 3.0 | 5.0 | 0.00 | 0.71 | 0.00 | 72 | 1015.5 |
| 20260507121213 | 40 | 90 | 1.0 | 3.0 | 0.00 | 0.71 | 0.00 | 72 | 1015.5 |
| 20260507120258 | 40 | 135 | 2.0 | 5.0 | 0.00 | 0.71 | 0.00 | 72 | 1015.4 |
| 20260507115448 | 40 | 202 | 1.0 | 6.0 | 0.00 | 0.71 | 0.00 | 71 | 1015.4 |
| 20260507114618 | 40 | 180 | 1.0 | 3.0 | 0.00 | 0.71 | 0.00 | 71 | 1015.3 |
| 20260507113648 | 40 | 202 | 2.0 | 4.0 | 0.00 | 0.71 | 0.00 | 71 | 1015.4 |
| 20260507112653 | 40 | 292 | 4.0 | 10.0 | 0.00 | 0.72 | 0.00 | 72 | 1015.5 |
| 20260507111728 | 40 | 270 | 3.0 | 7.0 | 0.00 | 0.72 | 0.00 | 72 | 1015.5 |
| 20260507110058 | 40 | 270 | 1.0 | 4.0 | 0.00 | 0.72 | 0.00 | 71 | 1015.6 |
| 20260507105113 | 41 | 338 | 1.0 | 3.0 | 0.00 | 0.72 | 0.00 | 71 | 1015.5 |
| 20260507104241 | 41 | 292 | 2.0 | 4.0 | 0.00 | 0.72 | 0.00 | 71 | 1015.6 |
| 20260507103248 | 41 | 292 | 2.0 | 3.0 | 0.00 | 0.72 | 0.00 | 72 | 1015.7 |
| 20260507102413 | 40 | 248 | 3.0 | 9.0 | 0.00 | 0.72 | 0.00 | 72 | 1015.7 |
| 20260507101448 | 38 | 135 | 4.0 | 5.0 | 0.00 | 0.72 | 0.00 | 79 | 1016.0 |
| 20260507100541 | 37 | 90 | 3.0 | 6.0 | 0.00 | 0.72 | 0.00 | 83 | 1016.0 |
| 20260507095657 | 36 | 270 | 4.0 | 7.0 | 0.00 | 0.72 | 0.00 | 88 | 1015.9 |
| 20260507094822 | 35 | 292 | 2.0 | 5.0 | 0.00 | 0.72 | 0.00 | 90 | 1016.0 |
| 20260507093853 | 34 | 270 | 5.0 | 13.0 | 0.00 | 0.72 | 0.00 | 91 | 1016.0 |
| 20260507093038 | 34 | 270 | 6.0 | 11.0 | 0.00 | 0.72 | 0.00 | 92 | 1016.0 |
| 20260507092038 | 33 | 270 | 7.0 | 13.0 | 0.00 | 0.72 | 0.00 | 91 | 1016.0 |
| 20260507091148 | 34 | 270 | 5.0 | 9.0 | 0.00 | 0.72 | 0.00 | 92 | 1015.9 |
| 20260507090208 | 33 | 180 | 1.0 | 4.0 | 0.00 | 0.72 | 0.00 | 92 | 1015.9 |
| 20260507085218 | 33 | 135 | 2.0 | 4.0 | 0.00 | 0.72 | 0.00 | 92 | 1016.0 |
| 20260507084358 | 32 | 270 | 2.0 | 5.0 | 0.00 | 0.72 | 0.00 | 92 | 1015.9 |
| 20260507083413 | 32 | 270 | 2.0 | 4.0 | 0.00 | 0.72 | 0.00 | 93 | 1015.9 |
| 20260507082541 | 32 | 270 | 2.0 | 5.0 | 0.00 | 0.72 | 0.00 | 92 | 1015.9 |
| 20260507080834 | 32 | 0 | 0.0 | 2.0 | 0.00 | 0.72 | 0.00 | 92 | 1016.4 |
| 20260507075001 | 32 | 135 | 1.0 | 4.0 | 0.00 | 0.73 | 0.00 | 92 | 1016.6 |
| 20260507074018 | 32 | 135 | 1.0 | 3.0 | 0.00 | 0.73 | 0.00 | 92 | 1016.7 |
| 20260507073158 | 32 | 135 | 2.0 | 3.0 | 0.00 | 0.73 | 0.00 | 92 | 1016.8 |
| 20260507072241 | 31 | 158 | 2.0 | 3.0 | 0.00 | 0.73 | 0.00 | 92 | 1016.8 |
| 20260507071348 | 31 | 0 | 0.0 | 2.0 | 0.00 | 0.73 | 0.00 | 91 | 1016.8 |
| 20260507070426 | 31 | 292 | 1.0 | 2.0 | 0.00 | 0.73 | 0.00 | 91 | 1016.8 |
| 20260507065513 | 31 | 0 | 0.0 | 2.0 | 0.00 | 0.73 | 0.00 | 91 | 1016.9 |
| 20260507064642 | 31 | 248 | 1.0 | 3.0 | 0.00 | 0.73 | 0.00 | 91 | 1017.1 |
| 20260507063912 | 32 | 0 | 0.0 | 1.0 | 0.00 | 0.73 | 0.00 | 91 | 1017.3 |
| 20260507063745 | 32 | 0 | 0.0 | 1.0 | 0.00 | 0.73 | 0.00 | 91 | 1017.3 |
| 20260507063004 | 32 | 0 | 0.0 | 2.0 | 0.00 | 0.73 | 0.00 | 90 | 1017.5 |
| 20260507062858 | 32 | 0 | 0.0 | 2.0 | 0.00 | 0.73 | 0.00 | 90 | 1017.5 |
| 20260507062004 | 32 | 225 | 1.0 | 3.0 | 0.00 | 0.73 | 0.00 | 90 | 1017.6 |
| 20260507060058 | 32 | 225 | 2.0 | 3.0 | 0.00 | 0.73 | 0.00 | 90 | 1017.7 |
| 20260507055148 | 32 | 248 | 2.0 | 5.0 | 0.00 | 0.74 | 0.00 | 91 | 1017.9 |
| 20260507054333 | 32 | 248 | 3.0 | 6.0 | 0.00 | 0.74 | 0.00 | 91 | 1017.9 |
| 20260507053433 | 32 | 270 | 1.0 | 2.0 | 0.00 | 0.74 | 0.00 | 90 | 1018.0 |
| 20260507052541 | 32 | 202 | 1.0 | 3.0 | 0.00 | 0.74 | 0.00 | 89 | 1018.2 |
| 20260507051543 | 32 | 0 | 0.0 | 1.0 | 0.00 | 0.74 | 0.00 | 89 | 1018.3 |
| 20260507050558 | 32 | 0 | 0.0 | 1.0 | 0.00 | 0.74 | 0.00 | 88 | 1018.4 |
| 20260507045753 | 32 | 248 | 2.0 | 3.0 | 0.00 | 0.74 | 0.00 | 88 | 1018.6 |
| 20260507044848 | 32 | 270 | 1.0 | 2.0 | 0.00 | 0.74 | 0.00 | 88 | 1018.6 |
| 20260507044119 | 32 | 270 | 1.0 | 2.0 | 0.00 | 0.74 | 0.00 | 88 | 1018.7 |
| 20260507044041 | 32 | 270 | 1.0 | 2.0 | 0.00 | 0.74 | 0.00 | 88 | 1018.7 |
| 20260507043501 | 33 | 0 | 0.0 | 1.0 | 0.00 | 0.74 | 0.00 | 87 | 1018.8 |
| 20260507043221 | 33 | 0 | 0.0 | 1.0 | 0.00 | 0.74 | 0.00 | 87 | 1018.8 |
| 20260507042400 | 33 | 270 | 1.0 | 3.0 | 0.00 | 0.75 | 0.00 | 87 | 1018.9 |
| 20260507042243 | 33 | 270 | 1.0 | 3.0 | 0.00 | 0.75 | 0.00 | 87 | 1018.9 |
| 20260507041258 | 33 | 270 | 1.0 | 3.0 | 0.00 | 0.75 | 0.00 | 87 | 1019.0 |
| 20260507040459 | 33 | 270 | 3.0 | 5.0 | 0.00 | 0.75 | 0.00 | 86 | 1018.9 |
| 20260507040303 | 33 | 270 | 3.0 | 5.0 | 0.00 | 0.75 | 0.00 | 86 | 1018.9 |
| 20260507035418 | 33 | 248 | 2.0 | 5.0 | 0.00 | 0.75 | 0.00 | 86 | 1019.0 |
| 20260507034523 | 34 | 270 | 2.0 | 6.0 | 0.00 | 0.75 | 0.00 | 85 | 1019.1 |
| 20260507033538 | 34 | 270 | 1.0 | 3.0 | 0.00 | 0.75 | 0.00 | 84 | 1019.3 |
| 20260507032720 | 34 | 0 | 0.0 | 1.0 | 0.00 | 0.75 | 0.00 | 84 | 1019.3 |
| 20260507032558 | 34 | 0 | 0.0 | 1.0 | 0.00 | 0.75 | 0.00 | 84 | 1019.3 |
| 20260507031658 | 34 | 0 | 0.0 | 1.0 | 0.00 | 0.75 | 0.00 | 83 | 1019.1 |
| 20260507030818 | 35 | 0 | 0.0 | 1.0 | 0.00 | 0.75 | 0.00 | 82 | 1019.1 |
| 20260507025843 | 35 | 0 | 0.0 | 2.0 | 0.00 | 0.75 | 0.00 | 82 | 1019.0 |
| 20260507025003 | 36 | 0 | 0.0 | 1.0 | 0.00 | 0.75 | 0.00 | 81 | 1019.0 |
| 20260507024057 | 37 | 0 | 0.0 | 2.0 | 0.00 | 0.76 | 0.00 | 80 | 1018.9 |
| 20260507024008 | 37 | 0 | 0.0 | 2.0 | 0.00 | 0.76 | 0.00 | 80 | 1018.9 |
| 20260507022048 | 37 | 248 | 2.0 | 4.0 | 0.00 | 0.76 | 0.00 | 79 | 1018.8 |
| 20260507021357 | 38 | 180 | 3.0 | 5.0 | 0.00 | 0.76 | 0.00 | 78 | 1018.7 |
| 20260507021143 | 38 | 180 | 3.0 | 5.0 | 0.00 | 0.76 | 0.00 | 78 | 1018.7 |
| 20260507020258 | 38 | 180 | 3.0 | 7.0 | 0.00 | 0.76 | 0.00 | 77 | 1018.5 |
| 20260507014648 | 38 | 202 | 2.0 | 6.0 | 0.00 | 0.76 | 0.00 | 77 | 1018.5 |
| 20260507013818 | 39 | 180 | 3.0 | 5.0 | 0.00 | 0.76 | 0.00 | 76 | 1018.5 |
| 20260507012818 | 39 | 180 | 4.0 | 11.0 | 0.00 | 0.76 | 0.00 | 75 | 1018.4 |
| 20260507011908 | 39 | 180 | 4.0 | 9.0 | 0.00 | 0.76 | 0.00 | 75 | 1018.4 |
| 20260507010938 | 39 | 180 | 4.0 | 10.0 | 0.00 | 0.76 | 0.00 | 74 | 1018.5 |
| 20260507010041 | 40 | 180 | 5.0 | 13.0 | 0.00 | 0.76 | 0.00 | 74 | 1018.6 |
| 20260507005430 | 40 | 180 | 4.0 | 9.0 | 0.00 | 0.76 | 0.00 | 74 | 1018.6 |
| 20260507005148 | 40 | 180 | 4.0 | 9.0 | 0.00 | 0.76 | 0.00 | 74 | 1018.6 |
| 20260507004221 | 40 | 180 | 5.0 | 10.0 | 0.00 | 0.76 | 0.00 | 73 | 1018.6 |
| 20260507003233 | 40 | 158 | 4.0 | 9.0 | 0.00 | 0.76 | 0.00 | 75 | 1018.6 |
| 20260507002401 | 40 | 180 | 5.0 | 10.0 | 0.00 | 0.77 | 0.00 | 74 | 1018.8 |
| 20260507001501 | 40 | 180 | 4.0 | 10.0 | 0.00 | 0.77 | 0.00 | 73 | 1019.0 |
| 20260507000508 | 40 | 180 | 5.0 | 11.0 | 0.00 | 0.77 | 0.00 | 73 | 1019.1 |
| 20260506235603 | 40 | 158 | 4.0 | 12.0 | 0.00 | 0.77 | 0.00 | 73 | 1019.2 |
| 20260506234748 | 40 | 180 | 6.0 | 11.0 | 0.00 | 0.77 | 0.00 | 73 | 1019.3 |
| 20260506233806 | 41 | 158 | 5.0 | 10.0 | 0.00 | 0.77 | 0.00 | 73 | 1019.4 |
| 20260506232838 | 40 | 158 | 5.0 | 10.0 | 0.00 | 0.77 | 0.00 | 74 | 1019.5 |
| 20260506232008 | 40 | 158 | 6.0 | 12.0 | 0.00 | 0.77 | 0.00 | 73 | 1019.5 |
| 20260506230248 | 41 | 158 | 5.0 | 12.0 | 0.00 | 0.77 | 0.00 | 73 | 1019.4 |
| 20260506225504 | 41 | 135 | 4.0 | 9.0 | 0.00 | 0.77 | 0.00 | 72 | 1019.7 |
| 20260506225412 | 41 | 135 | 4.0 | 9.0 | 0.00 | 0.77 | 0.00 | 72 | 1019.7 |
| 20260506224558 | 41 | 180 | 5.0 | 13.0 | 0.00 | 0.77 | 0.00 | 72 | 1019.7 |
| 20260506223917 | 41 | 202 | 4.0 | 10.0 | 0.00 | 0.77 | 0.00 | 74 | 1019.7 |
| 20260506223713 | 41 | 202 | 4.0 | 10.0 | 0.00 | 0.77 | 0.00 | 74 | 1019.7 |
| 20260506222753 | 41 | 180 | 5.0 | 12.0 | 0.00 | 0.77 | 0.00 | 72 | 1019.8 |
| 20260506220918 | 42 | 180 | 4.0 | 9.0 | 0.01 | 0.78 | 0.00 | 73 | 1020.1 |
| 20260506220742 | 41 | 180 | 4.0 | 9.0 | 0.01 | 0.78 | 0.00 | 74 | 1020.2 |
| 20260506220113 | 41 | 180 | 4.0 | 9.0 | 0.01 | 0.78 | 0.00 | 74 | 1020.2 |
| 20260506215138 | 41 | 158 | 4.0 | 10.0 | 0.02 | 0.78 | 0.00 | 74 | 1020.4 |
| 20260506214505 | 41 | 158 | 3.0 | 7.0 | 0.04 | 0.78 | 0.00 | 75 | 1020.5 |
| 20260506214228 | 41 | 158 | 3.0 | 7.0 | 0.04 | 0.78 | 0.00 | 75 | 1020.5 |
| 20260506212505 | 41 | 180 | 4.0 | 9.0 | 0.07 | 0.78 | 0.00 | 76 | 1020.7 |
| 20260506212353 | 41 | 180 | 4.0 | 9.0 | 0.07 | 0.78 | 0.00 | 76 | 1020.7 |
| 20260506211420 | 41 | 180 | 3.0 | 6.0 | 0.07 | 0.78 | 0.00 | 74 | 1020.7 |
| 20260506205623 | 41 | 202 | 3.0 | 9.0 | 0.08 | 0.78 | 0.00 | 73 | 1021.0 |
| 20260506205548 | 41 | 202 | 3.0 | 9.0 | 0.08 | 0.78 | 0.00 | 73 | 1021.0 |
| 20260506204711 | 41 | 202 | 2.0 | 4.0 | 0.08 | 0.79 | 0.00 | 76 | 1021.2 |
| 20260506203713 | 41 | 202 | 2.0 | 6.0 | 0.07 | 0.78 | 0.00 | 76 | 1021.3 |
| 20260506202741 | 40 | 248 | 3.0 | 7.0 | 0.07 | 0.77 | 0.00 | 79 | 1021.4 |
| 20260506201821 | 39 | 225 | 2.0 | 5.0 | 0.08 | 0.77 | 0.00 | 78 | 1021.6 |
| 20260506200904 | 39 | 248 | 3.0 | 5.0 | 0.09 | 0.76 | 0.00 | 78 | 1021.7 |
| 20260506200018 | 38 | 248 | 1.0 | 4.0 | 0.10 | 0.78 | 0.00 | 74 | 1021.8 |
| 20260506195917 | 38 | 135 | 2.0 | 4.0 | 0.12 | 0.79 | 0.00 | 73 | 1021.7 |
| 20260506195118 | 38 | 135 | 2.0 | 4.0 | 0.12 | 0.79 | 0.00 | 73 | 1021.7 |
| 20260506194303 | 38 | 22 | 1.0 | 3.0 | 0.14 | 0.78 | 0.00 | 71 | 1021.8 |
| 20260506193433 | 38 | 22 | 3.0 | 5.0 | 0.17 | 0.78 | 0.00 | 73 | 1021.9 |
| 20260506192453 | 39 | 112 | 2.0 | 6.0 | 0.21 | 0.76 | 0.00 | 80 | 1021.9 |
| 20260506191638 | 38 | 68 | 3.0 | 6.0 | 0.22 | 0.75 | 0.00 | 76 | 1022.0 |
| 20260506190736 | 38 | 45 | 1.0 | 4.0 | 0.26 | 0.74 | 0.00 | 73 | 1022.0 |
| 20260506185801 | 38 | 338 | 1.0 | 3.0 | 0.30 | 0.73 | 0.00 | 71 | 1022.1 |
| 20260506184929 | 38 | 45 | 3.0 | 5.0 | 0.30 | 0.70 | 0.00 | 74 | 1022.2 |
| 20260506184013 | 38 | 22 | 3.0 | 6.0 | 0.28 | 0.67 | 0.00 | 72 | 1022.2 |
| 20260506183148 | 38 | 22 | 2.0 | 5.0 | 0.27 | 0.65 | 0.00 | 77 | 1022.3 |